Regional Weather Roundup
Issued by NWS

Home | Current Version | Previous Version | Text Only | Print | Product List | Glossary Off
Versions: 1 2 3 4 5 6 7 8 9 10 11 12 13 14 15 16 17 18 19 20 21 22 23 24 25 26 27 28 29 30 31 32 33 34 35 36 37 38 39 40 41 42 43 44 45 46 47 48 49 50

000
ASUS43 KLMK 271310
RWRKY
KENTUCKY REGIONAL WEATHER ROUNDUP
NATIONAL WEATHER SERVICE LOUISVILLE KY
900 AM EDT MON MAR 27 2017

NOTE "FAIR" INDICATES FEW OR NO CLOUDS BELOW 12,000 FEET
WITH NO SIGNIFICANT WEATHER AND/OR OBSTRUCTIONS TO VISIBILITY.

KYZ001>023-026-027-061>063-070>075-271400-
WESTERN AND SOUTH CENTRAL KENTUCKY

CITY           SKY/WX    TMP DP  RH WIND       PRES   REMARKS
PADUCAH        CLOUDY    59  54  83 SE13      29.88F
HENDERSON      CLOUDY    54  46  76 S10       29.96R
OWENSBORO      CLOUDY    54  49  83 SE6       29.96R
HOPKINSVILLE   DRIZZLE   59  59  99 S3        29.94F
BOWLING GREEN  LGT RAIN  54  52  93 CALM      29.96S FOG
GLASGOW        CLOUDY    55  55 100 E5        29.96F
$$

KYZ024-025-028>034-038-045-046-053-271400-
NORTH CENTRAL KENTUCKY

CITY           SKY/WX    TMP DP  RH WIND       PRES   REMARKS
LOUISVILLE/SDF CLOUDY    55  49  80 CALM      29.98R
LOUISVILLE/LOU CLOUDY    55  49  80 CALM      29.98R
FORT KNOX      CLOUDY    53  52  99 E5        29.96R
$$

KYZ035>037-039>044-047>052-055>060-089>105-271400-
NORTHEAST KENTUCKY

CITY           SKY/WX    TMP DP  RH WIND       PRES   REMARKS
LEXINGTON      PTSUNNY   57  52  83 SE6       30.00R
COVINGTON      MOSUNNY   50  50 100 CALM      29.99S
FRANKFORT      SUNNY     56  51  84 SE5       29.99R
$$

KYZ054-064>069-076>088-106>120-271400-
SOUTHEAST KENTUCKY

CITY           SKY/WX    TMP DP  RH WIND       PRES   REMARKS
JACKSON        CLOUDY    59  53  80 S3        30.03R
LONDON         PTSUNNY   54  51  90 CALM      30.02R
SOMERSET       MOSUNNY   52  52 100 CALM      30.02S
MIDDLESBORO    MOSUNNY   50  50 100 CALM      30.07R
MONTICELLO     CLOUDY    62  56  80 E7        30.02S
$$




USA.gov is the U.S. government's official web portal to all federal, state and local government web resources and services.